Flag for Germany Weather past 2 weeks in Biberach an der Riss, Baden-Württemberg, Germany

50 °F


Feels Like: 48 °F
Forecast: 41 / 64 °F
Wind: 6 mph from Southeast

Location: Laupheim Airport

Current Time: Oct 4, 2015 at 10:10:27 PM

Latest Report: Oct 4, 2015 at 9:20 PM

Visibility: N/A

Pressure: 30.07 "Hg (28.19 "Hg at 536m altitude)

Humidity: 88%

Dew point: 46 °F

Location of Biberach an der RissLocation

Historic Weather in Biberach an der Riss — Graph


Biberach an der Riss temperature yesterday

Maximum temperature yesterday: 70 °F (at 4:20 PM)
Minimum temperature yesterday: 45 °F (at 6:20 AM)
Average temperature yesterday: 56 °F

Past Weeks' High & Low Weather Summary

High70 °F (Oct 3, 4:20 PM)100% (Sep 21, 3:20 AM)30.48 "Hg (Sep 21, 3:20 AM)
Low37 °F (Sep 28, 6:20 AM)36% (Oct 1, 4:20 PM)29.68 "Hg (Sep 22, 5:20 PM)
Average52 °F73%30.17 "Hg
* Reported Sep 19 8:20 PM — Oct 4 8:20 PM, Biberach an der Riss, Weather by CustomWeather, © 2015

Note: Actual official high and low records may vary slightly from our data, if they occured in-between our weather recording intervals... More about our weather records


Biberach an der Riss weather history for previous 24 hours

Time TempWeatherWind HumidityBarometerVisibility
8:20 PM
Sun, Oct 4
50 °FCool.6 mph88%30.07 "HgN/A
7:20 PM50 °FPassing clouds.2 mph94%30.07 "HgN/A
6:20 PM55 °FScattered clouds.3 mph72%30.07 "HgN/A
5:20 PM57 °FScattered clouds.3 mph72%30.07 "HgN/A
4:20 PM55 °FPartly sunny.1 mph82%30.09 "HgN/A
3:20 PM54 °FPartly sunny.3 mph82%30.09 "HgN/A
2:20 PM52 °FBroken clouds.8 mph88%30.09 "HgN/A
1:20 PM50 °FBroken clouds.8 mph88%30.12 "HgN/A
12:20 PM50 °FRain. Broken clouds.13 mph94%30.12 "Hg6 mi
11:20 AM50 °FRain. Partly sunny.12 mph94%30.12 "Hg5 mi
10:20 AM50 °FDrizzle. Partly sunny.12 mph88%30.12 "HgN/A
9:20 AM54 °FPartly sunny.13 mph77%30.09 "HgN/A
8:20 AM52 °FLight rain. Mostly cloudy.12 mph88%30.07 "Hg4 mi
7:20 AM52 °FDrizzle. Fog.6 mph88%30.04 "Hg3 mi
6:20 AM50 °FLight rain. Mostly cloudy.2 mph94%30.01 "HgN/A
5:20 AM50 °FLight rain. Mostly cloudy.5 mph88%30.01 "HgN/A
4:20 AM50 °FMostly cloudy.2 mph88%29.98 "HgN/A
3:20 AM50 °FMostly cloudy.3 mph88%29.98 "HgN/A
2:20 AM52 °FMostly cloudy.2 mph88%29.98 "HgN/A
1:20 AM50 °FPassing clouds.3 mph88%29.98 "HgN/A
12:20 AM48 °FPassing clouds.3 mph87%30.01 "HgN/A
11:20 PM
Sat, Oct 3
52 °FPassing clouds.3 mph82%29.98 "HgN/A
10:20 PM54 °FPassing clouds.1 mph77%29.98 "HgN/A
Weather by CustomWeather, © 2015

See weather overviewHow to use our weather pages